Location: Unspecified
(47.5840°N, 122.3000°W)
Time: 02:37:21
(UTC+00:00)

Cosmos 858 Rocket - Visible Passes

Search period start: 17 March 2026 00:00
Search period end: 27 March 2026 00:00
Orbit: 751 x 771 km, 74.1° (Epoch: 16 March)

Date Brightness Start Highest point End Pass type
(mag) Time Alt. Az. Time Alt. Az. Time Alt. Az.
17 Mar 6.7 10:16:07 20° N 10:16:07 20° N 10:17:57 10° N visible
18 Mar 6.9 09:37:25 18° NNE 09:37:25 18° NNE 09:38:49 10° NNE visible
18 Mar 6.8 11:17:30 12° NNW 11:17:30 12° NNW 11:18:59 10° NNW visible
19 Mar 7.2 08:58:41 15° NNE 08:58:41 15° NNE 08:59:33 10° NNE visible
19 Mar 6.8 10:38:47 16° NNW 10:38:47 16° NNW 10:40:35 10° N visible
20 Mar 7.4 08:19:57 11° NNE 08:19:57 11° NNE 08:20:06 10° NNE visible
20 Mar 6.8 10:00:02 18° N 10:00:02 18° N 10:01:47 10° N visible
21 Mar 6.9 09:21:16 18° N 09:21:16 18° N 09:22:45 10° NNE visible
22 Mar 7.1 08:42:30 16° NNE 08:42:30 16° NNE 08:43:34 10° NNE visible
22 Mar 6.9 10:22:35 14° NNW 10:22:35 14° NNW 10:24:07 10° N visible
23 Mar 7.2 08:03:42 13° NNE 08:03:42 13° NNE 08:04:14 10° NNE visible
23 Mar 6.9 09:43:47 17° NNW 09:43:47 17° NNW 09:45:30 10° N visible
24 Mar 6.9 09:04:58 19° N 09:04:58 19° N 09:06:36 10° N visible
25 Mar 7.0 08:26:07 18° N 08:26:07 18° N 08:27:31 10° NNE visible
25 Mar 7.1 10:06:12 11° NNW 10:06:12 11° NNW 10:07:16 10° NNW visible
26 Mar 7.0 07:47:15 16° NNE 07:47:15 16° NNE 07:48:17 10° NNE visible
26 Mar 7.0 09:27:20 15° NNW 09:27:20 15° NNW 09:29:08 10° N visible
